Location: Marsån
(66.4167°N, 22.2833°E)
Time: 07:47:25
(UTC+00:00)

Cosmos 2219 Rocket - Pass Details

Date: 24 February 2024
Orbit: 829 x 844 km, 71.0° (Epoch: 21 April)

Event Time Altitude Azimuth Distance (km) Brightness Sun altitude
Rises 19:25:36 0° 314° (NW) 3,393 6.7 -23.9°
Reaches altitude 10° 19:28:10 10° 307° (NW) 2,454 5.7 -24.1°
Maximum altitude 19:33:19 38° 241° (WSW) 1,249 3.2 -24.6°
Enters shadow 19:35:22 28° 199° (SSW) 1,505 3.3 -24.7°
